GW1454 Weather Reports


Display with metric or nautical units.
time (UTC)temp
F
wind
direction
speed
MPH
gust
MPH
rain 1hr
in
rain 24hr
in
rain mn
in
humidity
%
barometer
mb
20260904154556 90 132 0.0 4.0 0.00 0.00 0.00 66 1017.8
20260904154047 90 103 1.0 5.0 0.00 0.00 0.00 68 1017.7
20260904153546 89 36 0.0 6.0 0.00 0.00 0.00 70 1017.7
20260904153104 89 155 1.0 6.0 0.00 0.00 0.00 69 1017.7
20260904152547 89 113 2.0 6.0 0.00 0.00 0.00 69 1017.7
20260904152048 89 52 0.0 4.0 0.00 0.00 0.00 69 1017.7
20260904151605 89 148 1.0 4.0 0.00 0.00 0.00 70 1017.8
20260904151046 88 0 0.0 4.0 0.00 0.00 0.00 72 1017.8
20260904150547 88 161 1.0 4.0 0.00 0.00 0.00 71 1017.8
20260904150057 88 161 1.0 5.0 0.00 0.00 0.00 71 1017.8
20260904145547 87 103 1.0 5.0 0.00 0.00 0.00 72 1017.8
20260904145046 87 0 2.0 4.0 0.00 0.00 0.00 71 1017.9
20260904144555 87 148 1.0 3.0 0.00 0.00 0.00 72 1018.0
20260904144045 86 107 0.0 7.0 0.00 0.00 0.00 75 1017.8
20260904143550 86 73 1.0 7.0 0.00 0.00 0.00 75 1018.0
20260904143133 85 92 2.0 5.0 0.00 0.00 0.00 75 1018.0
20260904142544 85 114 2.0 7.0 0.00 0.00 0.00 74 1018.0
20260904142046 85 91 1.0 7.0 0.00 0.00 0.00 76 1018.0
20260904141610 85 67 2.0 6.0 0.00 0.00 0.00 76 1018.0
20260904141044 85 53 2.0 4.0 0.00 0.00 0.00 76 1018.0
20260904140546 84 88 1.0 5.0 0.00 0.00 0.00 77 1017.9
20260904140100 84 150 0.0 5.0 0.00 0.00 0.00 78 1018.0
20260904135545 83 96 2.0 5.0 0.00 0.00 0.00 77 1018.0
20260904135047 83 120 1.0 5.0 0.00 0.00 0.00 78 1017.9
20260904134600 83 65 2.0 5.0 0.00 0.00 0.00 78 1017.8
20260904134048 82 28 2.0 6.0 0.00 0.00 0.00 79 1017.9
20260904133544 82 0 3.0 6.0 0.00 0.00 0.00 80 1017.8
20260904133056 82 125 1.0 6.0 0.00 0.00 0.00 79 1017.9
20260904132545 81 0 1.0 6.0 0.00 0.00 0.00 80 1017.9
20260904132044 81 0 1.0 5.0 0.00 0.00 0.00 81 1018.0
20260904131616 81 142 1.0 5.0 0.00 0.00 0.00 81 1018.1
20260904131044 81 141 1.0 4.0 0.00 0.00 0.00 81 1018.2
20260904130544 80 0 1.0 4.0 0.00 0.00 0.00 83 1018.1
20260904130059 80 136 0.0 4.0 0.00 0.00 0.00 83 1017.9
20260904125544 80 123 1.0 4.0 0.00 0.00 0.00 85 1017.8
20260904125047 79 0 1.0 4.0 0.00 0.00 0.00 85 1017.8
20260904124605 79 95 1.0 4.0 0.00 0.00 0.00 85 1017.9
20260904124044 78 109 1.0 3.0 0.00 0.00 0.00 85 1018.1
20260904123544 78 116 0.0 2.0 0.00 0.00 0.00 86 1018.0
20260904123104 78 0 0.0 2.0 0.00 0.00 0.00 88 1018.1
20260904122544 77 93 0.0 2.0 0.00 0.00 0.00 88 1018.0
20260904122044 76 0 0.0 2.0 0.00 0.00 0.00 89 1017.9
20260904121604 76 94 0.0 2.0 0.00 0.00 0.00 90 1017.9
20260904121047 75 0 0.0 0.0 0.00 0.00 0.00 92 1017.8
20260904120545 75 0 0.0 1.0 0.00 0.00 0.00 93 1017.8
20260904120115 74 0 0.0 1.0 0.00 0.00 0.00 94 1017.9
20260904115546 73 0 0.0 0.0 0.00 0.00 0.00 95 1017.8
20260904115044 73 0 0.0 0.0 0.00 0.00 0.00 96 1017.8
20260904114607 72 0 0.0 0.0 0.00 0.00 0.00 96 1017.8
20260904114045 72 0 0.0 0.0 0.00 0.00 0.00 97 1017.8
20260904113545 71 0 0.0 0.0 0.00 0.00 0.00 96 1017.7
20260904113108 71 0 0.0 0.0 0.00 0.00 0.00 96 1017.6
20260904112548 71 0 0.0 0.0 0.00 0.00 0.00 96 1017.7
20260904112046 71 0 0.0 0.0 0.00 0.00 0.00 96 1017.6
20260904111607 70 0 0.0 0.0 0.00 0.00 0.00 95 1017.5
20260904111050 70 0 0.0 0.0 0.00 0.00 0.00 95 1017.4
20260904110546 70 0 0.0 0.0 0.00 0.00 0.00 95 1017.4
20260904110108 71 0 0.0 0.0 0.00 0.00 0.00 95 1017.4
20260904105547 71 0 0.0 0.0 0.00 0.00 0.00 95 1017.5
20260904105050 71 0 0.0 0.0 0.00 0.00 0.00 95 1017.5
20260904104559 71 0 0.0 0.0 0.00 0.00 0.00 95 1017.4
20260904104046 71 0 0.0 0.0 0.00 0.00 0.00 95 1017.4
20260904103547 71 0 0.0 0.0 0.00 0.00 0.00 95 1017.4
20260904103107 71 0 0.0 0.0 0.00 0.00 0.00 95 1017.3
20260904102547 71 0 0.0 0.0 0.00 0.00 0.00 95 1017.3
20260904102044 71 0 0.0 0.0 0.00 0.00 0.00 94 1017.4
20260904101603 71 0 0.0 0.0 0.00 0.00 0.00 95 1017.4
20260904101049 71 0 0.0 0.0 0.00 0.00 0.00 95 1017.4
20260904100545 71 0 0.0 0.0 0.00 0.00 0.00 94 1017.3
20260904095545 71 0 0.0 0.0 0.00 0.00 0.00 94 1017.3
20260904095045 71 0 0.0 0.0 0.00 0.00 0.00 94 1017.3
20260904094601 71 0 0.0 0.0 0.00 0.00 0.00 93 1017.2
20260904094047 71 0 0.0 0.0 0.00 0.00 0.00 94 1017.2
20260904093545 72 0 0.0 0.0 0.00 0.00 0.00 93 1017.1
20260904093100 72 0 0.0 0.0 0.00 0.00 0.00 93 1017.2
20260904092545 72 0 0.0 0.0 0.00 0.00 0.00 93 1017.1
20260904092045 72 0 0.0 0.0 0.00 0.00 0.00 93 1017.1
20260904091601 72 0 0.0 0.0 0.00 0.00 0.00 93 1017.0
20260904091045 72 0 0.0 0.0 0.00 0.00 0.00 93 1016.8
20260904090544 72 0 0.0 0.0 0.00 0.00 0.00 94 1016.8
20260904090104 72 0 0.0 0.0 0.00 0.00 0.00 94 1016.7
20260904085547 72 0 0.0 0.0 0.00 0.00 0.00 93 1016.6
20260904085046 72 0 0.0 0.0 0.00 0.00 0.00 92 1016.5
20260904084555 72 0 0.0 0.0 0.00 0.00 0.00 93 1016.5
20260904084044 73 0 0.0 0.0 0.00 0.00 0.00 93 1016.5
20260904083545 73 0 0.0 0.0 0.00 0.00 0.00 93 1016.5
20260904083101 73 0 0.0 0.0 0.00 0.00 0.00 93 1016.5
20260904082548 73 0 0.0 0.0 0.00 0.00 0.00 92 1016.5
20260904082044 73 0 0.0 0.0 0.00 0.00 0.00 92 1016.3
20260904081556 73 0 0.0 0.0 0.00 0.00 0.00 92 1016.3
20260904081044 73 0 0.0 0.0 0.00 0.00 0.00 92 1016.3
20260904080544 73 0 0.0 0.0 0.00 0.00 0.00 92 1016.4
20260904080104 73 0 0.0 0.0 0.00 0.00 0.00 92 1016.4
20260904075545 73 0 0.0 0.0 0.00 0.00 0.00 92 1016.5
20260904075045 73 0 0.0 0.0 0.00 0.00 0.00 92 1016.5
20260904074607 73 0 0.0 0.0 0.00 0.00 0.00 92 1016.6
20260904074045 73 0 0.0 0.0 0.00 0.00 0.00 92 1016.6
20260904073547 73 0 0.0 0.0 0.00 0.00 0.00 92 1016.6
20260904073056 73 0 0.0 0.0 0.00 0.00 0.00 92 1016.6
20260904072543 73 0 0.0 0.0 0.00 0.00 0.00 92 1016.6
20260904072044 73 0 0.0 0.0 0.00 0.00 0.00 92 1016.5
20260904071606 73 0 0.0 0.0 0.00 0.00 0.00 92 1016.7
20260904071045 73 0 0.0 0.0 0.00 0.00 0.00 92 1016.8
20260904070549 74 0 0.0 0.0 0.00 0.00 0.00 92 1016.9
20260904070104 74 0 0.0 0.0 0.00 0.00 0.00 92 1017.0
20260904065544 74 0 0.0 0.0 0.00 0.00 0.00 92 1016.9
20260904065044 73 0 0.0 0.0 0.00 0.00 0.00 92 1016.9
20260904064600 73 0 0.0 0.0 0.00 0.00 0.00 92 1017.1
20260904064046 74 0 0.0 0.0 0.00 0.00 0.00 91 1017.3
20260904063545 74 0 0.0 0.0 0.00 0.00 0.00 91 1017.2
20260904063057 74 0 0.0 0.0 0.00 0.00 0.00 91 1017.3
20260904062544 74 0 0.0 0.0 0.00 0.00 0.00 91 1017.4
20260904062044 74 0 0.0 0.0 0.00 0.00 0.00 91 1017.4
20260904061552 74 0 0.0 0.0 0.00 0.00 0.00 91 1017.4
20260904061046 74 0 0.0 0.0 0.00 0.00 0.00 91 1017.5
20260904060545 74 0 0.0 0.0 0.00 0.00 0.00 91 1017.5
20260904055544 74 0 0.0 0.0 0.00 0.00 0.00 90 1017.7
20260904055044 74 0 0.0 0.0 0.00 0.00 0.00 90 1017.7
20260904054557 75 0 0.0 0.0 0.00 0.00 0.00 90 1017.9
20260904054046 75 0 0.0 0.0 0.00 0.00 0.00 90 1018.0
20260904053545 75 0 0.0 0.0 0.00 0.00 0.00 90 1017.8
20260904053105 75 0 0.0 0.0 0.00 0.00 0.00 90 1017.9
20260904052545 75 0 0.0 0.0 0.00 0.00 0.00 90 1017.9
20260904052045 75 0 0.0 0.0 0.00 0.00 0.00 90 1018.0
20260904051555 75 0 0.0 0.0 0.00 0.00 0.00 90 1018.1
20260904051044 74 0 0.0 0.0 0.00 0.00 0.00 90 1018.0
20260904050544 74 0 0.0 0.0 0.00 0.00 0.00 90 1018.1
20260904045545 75 0 0.0 0.0 0.00 0.00 0.00 90 1018.2
20260904045045 75 0 0.0 0.0 0.00 0.00 0.00 89 1018.2
20260904044557 75 0 0.0 0.0 0.00 0.00 0.00 90 1018.2
20260904044049 75 0 0.0 0.0 0.00 0.00 0.00 89 1018.1
20260904043544 75 0 0.0 0.0 0.00 0.00 0.00 89 1018.1
20260904043105 75 0 0.0 0.0 0.00 0.00 0.00 89 1018.1
20260904042549 75 0 0.0 0.0 0.00 0.00 0.00 89 1018.0
20260904042045 75 0 0.0 0.0 0.00 0.00 0.00 89 1017.9
20260904041558 75 0 0.0 1.0 0.00 0.00 0.00 89 1017.9
20260904041044 75 0 0.0 1.0 0.00 0.00 0.00 89 1017.8
20260904040545 75 0 0.0 0.0 0.00 0.00 0.00 89 1017.8
20260904040108 75 0 0.0 0.0 0.00 0.00 0.00 89 1017.8
20260904035545 75 0 0.0 0.0 0.00 0.00 0.00 89 1017.8
20260904035044 75 0 0.0 0.0 0.00 0.00 0.00 88 1017.9
20260904034551 75 0 0.0 0.0 0.00 0.00 0.00 88 1017.8
20260904034045 76 0 0.0 0.0 0.00 0.00 0.00 88 1017.8
20260904033545 76 0 0.0 0.0 0.00 0.00 0.00 88 1017.8
20260904033102 76 0 0.0 0.0 0.00 0.00 0.00 88 1017.9
20260904032545 76 0 0.0 0.0 0.00 0.00 0.00 88 1017.8
20260904032044 76 0 0.0 0.0 0.00 0.00 0.00 87 1017.9
20260904031556 76 0 0.0 0.0 0.00 0.00 0.00 87 1018.0
20260904031044 76 0 0.0 0.0 0.00 0.00 0.00 87 1017.9
20260904030545 76 0 0.0 0.0 0.00 0.00 0.00 87 1017.9
20260904030105 76 0 0.0 0.0 0.00 0.00 0.00 88 1017.9
20260904025544 76 0 0.0 0.0 0.00 0.00 0.00 87 1017.9
20260904025044 76 0 0.0 0.0 0.00 0.00 0.00 87 1017.9
20260904024608 76 0 0.0 0.0 0.00 0.00 0.00 87 1017.9
20260904024044 77 0 0.0 0.0 0.00 0.00 0.00 86 1017.7
20260904023546 77 0 0.0 0.0 0.00 0.00 0.00 86 1017.9
20260904023058 77 0 0.0 0.0 0.00 0.00 0.00 86 1018.0
20260904022545 77 0 0.0 0.0 0.00 0.00 0.00 86 1018.0
20260904022045 77 0 0.0 0.0 0.00 0.00 0.00 85 1018.0
20260904021556 77 0 0.0 0.0 0.00 0.00 0.00 85 1018.1
20260904021044 78 0 0.0 0.0 0.00 0.00 0.00 84 1018.0
20260904020547 78 0 0.0 0.0 0.00 0.00 0.00 84 1018.1
20260904020109 78 0 0.0 0.0 0.00 0.00 0.00 84 1018.0
20260904015544 78 0 0.0 0.0 0.00 0.00 0.00 84 1018.0
20260904015044 78 0 0.0 0.0 0.00 0.00 0.00 84 1017.9
20260904014605 78 0 0.0 0.0 0.00 0.00 0.00 85 1017.9
20260904014044 78 0 0.0 0.0 0.00 0.00 0.00 84 1017.8
20260904013549 78 0 0.0 0.0 0.00 0.00 0.00 83 1017.9
20260904013103 78 0 0.0 0.0 0.00 0.00 0.00 83 1017.9
20260904012545 78 0 0.0 0.0 0.00 0.00 0.00 83 1017.8
20260904012045 79 0 0.0 0.0 0.00 0.00 0.00 83 1017.7
20260904011605 79 0 0.0 0.0 0.00 0.00 0.00 84 1017.6
20260904011044 79 0 0.0 0.0 0.00 0.00 0.00 84 1017.5
20260904010545 79 0 0.0 0.0 0.00 0.00 0.00 84 1017.4
20260904005544 79 0 0.0 0.0 0.00 0.00 0.00 83 1017.2
20260904005115 80 0 0.0 0.0 0.00 0.00 0.00 82 1017.2
20260904004558 80 0 0.0 0.0 0.00 0.00 0.00 83 1017.2
20260904004045 80 0 0.0 0.0 0.00 0.00 0.00 82 1017.0
20260904003544 80 0 0.0 0.0 0.00 0.00 0.00 81 1017.0
20260904003055 80 0 0.0 0.0 0.00 0.00 0.00 80 1016.8
20260904002545 81 0 0.0 0.0 0.00 0.00 0.00 81 1016.7
20260904002046 81 0 0.0 0.0 0.00 0.00 0.00 79 1016.8
20260904001607 81 0 0.0 0.0 0.00 0.00 0.00 80 1016.8
20260904001046 82 0 0.0 0.0 0.00 0.00 0.00 79 1016.8
20260904000544 82 0 0.0 0.0 0.00 0.00 0.00 79 1016.6
20260904000105 82 0 0.0 0.0 0.00 0.00 0.00 79 1016.5
20260903235543 83 0 0.0 0.0 0.00 0.00 0.00 78 1016.4
20260903235045 83 0 0.0 0.0 0.00 0.00 0.00 77 1016.4
20260903234558 83 0 0.0 0.0 0.00 0.00 0.00 77 1016.5
20260903234049 84 0 0.0 0.0 0.00 0.00 0.00 76 1016.4
20260903233545 84 0 0.0 2.0 0.00 0.00 0.00 76 1016.2
20260903233055 85 0 0.0 2.0 0.00 0.00 0.00 74 1016.1
20260903232544 85 0 0.0 1.0 0.00 0.00 0.00 74 1016.1
20260903232045 86 0 0.0 0.0 0.00 0.00 0.00 73 1016.1
20260903231556 86 0 0.0 0.0 0.00 0.00 0.00 72 1016.3
20260903231044 86 0 0.0 0.0 0.00 0.00 0.00 72 1016.1
20260903230546 87 0 0.0 0.0 0.00 0.00 0.00 72 1016.1
20260903230107 87 0 0.0 0.0 0.00 0.00 0.00 70 1016.2
20260903225547 88 0 0.0 0.0 0.00 0.00 0.00 70 1016.2
20260903225046 88 0 0.0 0.0 0.00 0.00 0.00 69 1016.1
20260903224600 88 0 0.0 0.0 0.00 0.00 0.00 68 1016.2
20260903224045 89 0 0.0 0.0 0.00 0.00 0.00 66 1016.1
20260903223548 89 0 0.0 0.0 0.00 0.00 0.00 66 1016.1
20260903223059 90 0 0.0 0.0 0.00 0.00 0.00 64 1016.1
20260903222544 91 0 0.0 1.0 0.00 0.00 0.00 63 1016.2
20260903222045 91 0 0.0 1.0 0.00 0.00 0.00 62 1016.2
20260903221553 92 0 0.0 1.0 0.00 0.00 0.00 64 1016.2
20260903221044 91 0 0.0 1.0 0.00 0.00 0.00 63 1016.3
20260903220544 91 0 0.0 1.0 0.00 0.00 0.00 62 1016.3
20260903220120 91 0 0.0 1.0 0.00 0.00 0.00 61 1016.3
20260903215545 92 0 0.0 1.0 0.00 0.00 0.00 58 1016.4
20260903215044 94 0 0.0 0.0 0.00 0.00 0.00 57 1016.5
20260903214601 94 0 0.0 0.0 0.00 0.00 0.00 58 1016.5
20260903214047 93 0 0.0 1.0 0.00 0.00 0.00 61 1016.3
20260903213545 92 0 0.0 1.0 0.00 0.00 0.00 59 1016.4
20260903213056 93 0 0.0 2.0 0.00 0.00 0.00 55 1016.4
20260903212544 95 0 0.0 2.0 0.00 0.00 0.00 52 1016.4
20260903212045 96 88 0.0 2.0 0.00 0.00 0.00 54 1016.5
20260903211603 95 0 0.0 1.0 0.00 0.00 0.00 52 1016.6
20260903211044 94 88 0.0 1.0 0.00 0.00 0.00 57 1016.5
20260903210544 93 88 0.0 0.0 0.00 0.00 0.00 56 1016.6
20260903205548 95 0 0.0 4.0 0.00 0.00 0.00 52 1016.6
20260903205044 96 88 1.0 4.0 0.00 0.00 0.00 51 1016.6
20260903204600 97 93 2.0 4.0 0.00 0.00 0.00 49 1016.6
20260903204044 97 101 1.0 4.0 0.00 0.00 0.00 48 1016.6
20260903203544 97 0 0.0 6.0 0.00 0.00 0.00 51 1016.7
20260903203058 96 0 1.0 6.0 0.00 0.00 0.00 49 1016.7
20260903202544 96 100 1.0 6.0 0.00 0.00 0.00 49 1016.7
20260903202045 97 236 2.0 6.0 0.00 0.00 0.00 48 1016.7
20260903201554 97 115 1.0 6.0 0.00 0.00 0.00 49 1016.8
20260903201044 97 240 2.0 6.0 0.00 0.00 0.00 49 1017.0
20260903200546 97 103 1.0 4.0 0.00 0.00 0.00 50 1016.9
20260903200110 97 51 1.0 4.0 0.00 0.00 0.00 47 1017.0
20260903195546 97 20 2.0 5.0 0.00 0.00 0.00 48 1017.0
20260903195044 97 227 2.0 6.0 0.00 0.00 0.00 49 1017.1
20260903194600 97 106 1.0 6.0 0.00 0.00 0.00 52 1017.2
20260903194045 96 270 2.0 6.0 0.00 0.00 0.00 51 1017.2
20260903193544 96 115 0.0 2.0 0.00 0.00 0.00 52 1017.2
20260903193108 96 102 0.0 2.0 0.00 0.00 0.00 53 1017.3
20260903192545 97 102 0.0 3.0 0.00 0.00 0.00 46 1017.2
20260903192044 96 0 0.0 3.0 0.00 0.00 0.00 48 1017.4
20260903191611 96 0 0.0 3.0 0.00 0.00 0.00 49 1017.4
20260903191050 97 297 1.0 2.0 0.00 0.00 0.00 46 1017.4
20260903190548 96 99 1.0 6.0 0.00 0.00 0.00 48 1017.4
20260903185546 98 76 1.0 8.0 0.00 0.00 0.00 46 1017.7
20260903185045 97 0 1.0 8.0 0.00 0.00 0.00 47 1017.7
20260903184606 97 118 1.0 8.0 0.00 0.00 0.00 48 1017.7
20260903184045 97 0 1.0 3.0 0.00 0.00 0.00 50 1017.6
20260903183544 96 153 1.0 3.0 0.00 0.00 0.00 48 1017.7
20260903183054 96 0 0.0 3.0 0.00 0.00 0.00 49 1017.8
20260903182546 96 119 1.0 3.0 0.00 0.00 0.00 52 1017.8
20260903182045 96 71 2.0 4.0 0.00 0.00 0.00 47 1017.9
20260903181605 96 0 0.0 6.0 0.00 0.00 0.00 50 1018.0
20260903181045 96 249 2.0 6.0 0.00 0.00 0.00 49 1018.1
20260903180547 96 286 1.0 6.0 0.00 0.00 0.00 49 1018.2
20260903180108 96 51 2.0 6.0 0.00 0.00 0.00 50 1018.1
20260903175545 96 337 3.0 6.0 0.00 0.00 0.00 51 1018.2
20260903175045 96 66 1.0 3.0 0.00 0.00 0.00 48 1018.3
20260903174606 96 0 0.0 4.0 0.00 0.00 0.00 50 1018.3
20260903174048 95 0 1.0 4.0 0.00 0.00 0.00 49 1018.4
20260903173544 95 351 2.0 4.0 0.00 0.00 0.00 53 1018.4
20260903173106 95 321 1.0 4.0 0.00 0.00 0.00 53 1018.5
20260903172545 94 105 0.0 4.0 0.00 0.00 0.00 53 1018.4
20260903172047 94 144 2.0 5.0 0.00 0.00 0.00 54 1018.5
20260903171612 94 96 3.0 5.0 0.00 0.00 0.00 52 1018.4
20260903171044 94 71 1.0 5.0 0.00 0.00 0.00 52 1018.7
20260903170544 94 154 2.0 4.0 0.00 0.00 0.00 52 1018.7
20260903170103 94 0 0.0 6.0 0.00 0.00 0.00 57 1018.8
20260903165545 94 88 2.0 6.0 0.00 0.00 0.00 55 1018.8
20260903165045 95 102 2.0 5.0 0.00 0.00 0.00 53 1018.9
20260903164601 94 113 1.0 7.0 0.00 0.00 0.00 55 1018.9
20260903164045 94 18 1.0 7.0 0.00 0.00 0.00 54 1018.9
20260903163547 94 32 0.0 6.0 0.00 0.00 0.00 57 1019.1
20260903163106 94 0 0.0 6.0 0.00 0.00 0.00 57 1019.1
20260903162550 94 350 2.0 6.0 0.00 0.00 0.00 56 1019.1
20260903162047 94 136 0.0 4.0 0.00 0.00 0.00 57 1019.1
20260903161607 93 0 0.0 6.0 0.00 0.00 0.00 54 1019.3
20260903161046 93 165 0.0 6.0 0.00 0.00 0.00 55 1019.2
20260903160547 93 123 1.0 4.0 0.00 0.00 0.00 54 1019.2
20260903155547 92 76 2.0 4.0 0.00 0.00 0.00 57 1019.3
20260903155047 92 0 2.0 4.0 0.00 0.00 0.00 59 1019.3